Location: Peterborough
(44.3091°N, 78.3197°W)
Time: 05:35:49
(UTC-04:00)

A-11 Canister half - Visible Passes

Search period start: 22 March 2023 00:00
Search period end: 01 April 2023 00:00
Orbit: 1512 x 1687 km, 47.2° (Epoch: 21 March)

Date Brightness Start Highest point End Pass type
(mag) Time Alt. Az. Time Alt. Az. Time Alt. Az.
22 Mar 10.7 00:50:57 19° ENE 00:50:57 19° ENE 00:53:10 10° ENE visible
22 Mar 9.1 02:49:07 74° NNE 02:49:07 74° NNE 02:58:44 10° E visible
22 Mar 9.0 04:47:19 26° WNW 04:53:56 78° SSW 05:04:00 10° ESE visible
22 Mar 9.9 22:06:43 10° SSW 22:11:42 29° S 22:11:42 29° S visible
23 Mar 10.9 00:09:54 10° WSW 00:29:09 14° ENE 00:30:10 10° ENE visible
23 Mar 9.3 02:27:20 63° ENE 02:27:20 63° ENE 02:35:43 10° E visible
23 Mar 9.0 04:25:32 33° WNW 04:30:58 80° SSW 04:41:05 10° ESE visible
23 Mar 9.7 06:26:20 10° WNW 06:35:07 35° SW 06:43:46 10° SSE visible
23 Mar 9.5 21:43:59 10° SSW 21:51:49 37° SE 21:51:49 37° SE visible
23 Mar 10.3 23:46:57 10° WSW 00:07:28 - ENE 23:50:10 24° WSW visible
24 Mar 9.6 02:05:40 50° ENE 02:05:40 50° ENE 02:12:42 10° E visible
24 Mar 9.0 04:03:51 43° WNW 04:07:58 82° SSW 04:18:07 10° ESE visible
24 Mar 9.6 06:03:15 10° WNW 06:12:13 37° SW 06:21:03 10° SSE visible
24 Mar 9.5 21:21:17 10° SSW 21:29:48 35° SE 21:31:59 32° ESE visible
24 Mar 9.5 23:24:00 10° WSW 23:45:55 - ENE 23:30:20 46° SW visible
25 Mar 9.9 01:44:07 38° ENE 01:44:07 38° ENE 01:49:41 10° E visible
25 Mar 9.0 03:42:20 57° WNW 03:44:59 85° SSW 03:55:10 10° ESE visible
25 Mar 9.5 05:40:33 11° WNW 05:49:20 39° SW 05:58:19 10° SSE visible
25 Mar 9.6 20:58:36 10° SSW 21:06:55 33° SE 21:12:06 21° E visible
25 Mar 8.9 23:01:06 10° WSW 23:10:26 77° S 23:10:26 77° S visible
26 Mar 10.3 01:06:18 10° W 01:22:48 27° E 01:26:39 10° E visible
26 Mar 9.0 03:21:02 77° W 03:21:59 87° SSW 03:32:12 10° ESE visible
26 Mar 9.4 05:19:16 17° WNW 05:26:25 41° SW 05:35:34 10° SSE visible
26 Mar 9.7 20:35:57 10° S 20:44:03 31° SE 20:52:02 11° ENE visible
26 Mar 8.9 22:38:10 10° SW 22:48:00 76° SSE 22:50:21 58° E visible
27 Mar 9.9 00:43:18 10° W 01:01:46 17° E 01:03:37 10° E visible
27 Mar 9.0 03:00:01 76° ESE 03:00:01 76° ESE 03:09:13 10° ESE visible
27 Mar 9.4 04:58:18 26° W 05:03:30 44° SW 05:12:48 10° SSE visible
27 Mar 9.8 20:13:18 10° S 20:21:11 29° SE 20:29:16 10° ENE visible
27 Mar 8.9 22:15:16 10° SW 22:25:02 74° SSE 22:29:59 35° ENE visible
28 Mar 9.3 00:20:18 10° W 00:41:05 - E 00:28:16 61° WNW visible
28 Mar 9.5 02:25:48 10° WNW 02:39:22 50° ESE 02:46:14 10° ESE visible
28 Mar 9.3 04:37:40 38° W 04:40:35 46° SW 04:50:01 10° SSE visible
28 Mar 9.9 19:50:42 10° S 19:58:19 27° SE 20:06:09 10° ENE visible
28 Mar 9.0 21:52:22 10° SW 22:02:05 71° SSE 22:09:14 22° ENE visible
28 Mar 9.1 23:57:18 10° W 00:07:19 77° N 00:07:30 77° N visible
29 Mar 10.2 02:02:48 10° WNW 02:19:04 29° ESE 02:23:14 10° ESE visible
29 Mar 9.2 04:17:23 49° SW 04:17:40 49° SW 04:27:12 10° SSE visible
29 Mar 10.4 06:16:19 10° W 06:20:46 14° WSW 06:25:14 10° SSW visible
29 Mar 9.0 21:29:29 10° SW 21:39:08 68° SSE 21:48:11 14° ENE visible
29 Mar 9.1 23:34:19 10° W 23:44:18 78° N 23:46:24 61° ENE visible
30 Mar 10.0 01:39:49 10° WNW 01:59:01 15° ESE 02:00:14 10° ESE visible
30 Mar 9.5 03:57:22 43° S 03:57:22 43° S 04:04:22 10° SSE visible
30 Mar 10.3 05:55:43 14° WSW 05:57:56 15° WSW 06:03:04 10° SSW visible
30 Mar 9.1 21:06:37 10° SW 21:16:11 66° SSE 21:26:08 10° ENE visible
30 Mar 9.1 23:11:21 10° W 23:21:17 79° N 23:25:02 45° ENE visible
31 Mar 9.6 01:16:50 10° WNW 01:39:08 - ESE 01:23:15 46° WNW visible
31 Mar 10.1 03:37:29 27° SSE 03:37:29 27° SSE 03:41:31 10° SE visible
31 Mar 10.2 05:35:50 17° SW 05:35:50 17° SW 05:40:47 10° SSW visible
31 Mar 9.1 20:43:45 10° SW 20:53:15 63° SSE 21:03:07 10° ENE visible
31 Mar 9.1 22:48:21 10° W 22:58:16 79° N 23:03:29 34° ENE visible
